Rota, Spain

2:09 AM CEST on August 27, 2016 (GMT +0200)
Rota Navy

Weather History for LERT - October, 2005

Change the Weather History Date:

Monday, October 10, 2005

  Actual Average Record
Temperature  
Mean Temperature 72 °F -  
Max Temperature 77 °F 68 °F 86 °F (2011)
Min Temperature 66 °F 56 °F 53 °F (1998)
Cooling Degree Days 6    
Growing Degree Days 22 (Base 50)    
Moisture  
Dew Point 59 °F    
Average Humidity 68    
Maximum Humidity 78    
Minimum Humidity 54    
Precipitation  
Precipitation 0.00 in - - ()
Sea Level Pressure  
Sea Level Pressure 30.00 in    
Wind  
Wind Speed 13 mph ()    
Max Wind Speed 21 mph    
Max Gust Speed -    
Visibility 5.5 miles    
Events Rain , Thunderstorm    
Averages and records for this station are not official NWS values.
T = Trace of Precipitation, MM = Missing Value Source: Averaged Metar Reports

Daily Weather History Graph

Daily Weather History Graph

Search for Another Location

Airport or City:

Trip Planner

Search our weather history database for the weather conditions in past years. The results will help you decide how hot, cold, wet, or windy it might be!

Date:

Astronomy

Oct. 10, 2005 Rise Set
Actual Time 8:28 AM CEST 7:55 PM CEST
Civil Twilight 8:02 AM CEST 8:21 PM CEST
Nautical Twilight 7:32 AM CEST 8:51 PM CEST
Astronomical Twilight 7:02 AM CEST 9:21 PM CEST
Moon 3:47 PM CEST (10/10) No Moon Set
Length of Visible Light 12h 19m
Length of Day
11h 27m
Waxing Crescent, 46% of the Moon is Illuminated
Oct 10
Waxing Crescent
Oct 10
First Quarter
Oct 17
Full
Oct 25
Last Quarter
Nov 2
New

Hourly Weather History & Observations

Time (CEST) Temp. Dew Point Humidity Pressure Visibility Wind Dir Wind Speed Gust Speed Precip Events Conditions
12:00 AM 68.0 °F 57.2 °F 68% 30.06 in - SSE 12.7 mph - N/A   Clear
1:00 AM 68.0 °F 57.2 °F 68% 30.06 in - SE 15.0 mph - N/A   Clear
2:00 AM 68.0 °F 57.2 °F 68% 30.04 in - SE 15.0 mph - N/A   Clear
3:00 AM 66.2 °F 59.0 °F 78% 30.06 in 5.0 mi SE 11.5 mph - N/A Rain , Thunderstorm Thunderstorms and Rain
3:07 AM 66.2 °F 59.0 °F 78% 30.04 in 5.6 mi SE 13.8 mph - N/A Rain , Thunderstorm Light Thunderstorms and Rain
4:04 AM 68.0 °F 59.0 °F 73% 30.04 in 6.2 mi SE 9.2 mph - N/A Thunderstorm Thunderstorm
5:00 AM 66.2 °F 59.0 °F 78% 30.04 in 6.2 mi SE 13.8 mph - N/A Thunderstorm Thunderstorm
6:00 AM 66.2 °F 59.0 °F 78% 30.04 in 6.2 mi SE 13.8 mph - N/A Rain , Thunderstorm Rain Showers
6:27 AM 66.2 °F 59.0 °F 78% 30.04 in 6.2 mi SE 13.8 mph - N/A Thunderstorm Thunderstorm
7:00 AM 66.2 °F 59.0 °F 78% 30.04 in 6.2 mi SE 13.8 mph - N/A   Scattered Clouds
8:00 AM 66.2 °F 59.0 °F 78% 30.04 in 6.2 mi ESE 9.2 mph - N/A   Mostly Cloudy
9:00 AM 66.2 °F 59.0 °F 78% 30.04 in - SE 11.5 mph - N/A   Clear
10:00 AM 68.0 °F 59.0 °F 73% 30.04 in - SE 10.4 mph - N/A   Clear
11:00 AM 69.8 °F 59.0 °F 68% 30.04 in - SE 13.8 mph - N/A   Clear
12:00 PM 71.6 °F 60.8 °F 69% 30.04 in - SE 13.8 mph - N/A   Clear
1:00 PM 73.4 °F 60.8 °F 65% 30.04 in - SE 16.1 mph - N/A   Clear
2:00 PM 75.2 °F 60.8 °F 61% 30.01 in - SE 15.0 mph - N/A   Clear
3:00 PM 75.2 °F 59.0 °F 57% 29.98 in - SE 17.3 mph - N/A   Clear
4:00 PM 77.0 °F 59.0 °F 54% 29.98 in - SE 16.1 mph - N/A   Clear
5:00 PM 75.2 °F 59.0 °F 57% 29.95 in - SE 15.0 mph - N/A   Clear
5:14 PM 73.4 °F 59.0 °F 61% 29.95 in 1.9 mi SE 15.0 mph - N/A Rain , Thunderstorm Thunderstorms and Rain
5:27 PM 73.4 °F 60.8 °F 65% 29.95 in 6.2 mi ESE 12.7 mph - N/A Thunderstorm Scattered Clouds
6:00 PM 73.4 °F 59.0 °F 61% 29.95 in - SE 16.1 mph - N/A   Clear
7:00 PM 73.4 °F 57.2 °F 57% 29.95 in 6.2 mi SSE 16.1 mph - N/A Thunderstorm Partly Cloudy
7:03 PM 69.8 °F 59.0 °F 68% 29.95 in 2.5 mi SSE 15.0 mph - N/A Rain , Thunderstorm Thunderstorms and Rain
8:00 PM 68.0 °F 57.2 °F 68% 29.95 in - SE 19.6 mph - N/A   Clear
9:00 PM 68.0 °F 55.4 °F 64% 29.92 in 6.2 mi SE 20.7 mph - N/A Thunderstorm Scattered Clouds
10:00 PM 68.0 °F 55.4 °F 64% 29.92 in 6.2 mi SE 17.3 mph - N/A Thunderstorm Partly Cloudy
11:00 PM 68.0 °F 57.2 °F 68% 29.98 in 6.2 mi SSE 19.6 mph - N/A   Mostly Cloudy